Göteborg, Sweden

02:09 AM CET on Februari 22, 2018 (GMT +0100)
Carl Grimbergsgatan 32 | | Change Station

Elev 89 ft 57.69 °N, 11.96 °E | Updated 43 seconds ago

Klart
Klart
25.7 °F
Feels Like 26 °F
N
0.0
Vind Växlande Vind from Sydlig
Gusts 0.7 miles/tim

Idag
High -- | Low -- °F
--% Chance of Precip.
Yesterday
High -- | Low -- °F
Precip. -- tum
Lufttryck 30.36 tum
Sikt -9999.0 miles
Molnigt
Vindavkylning 26 °F
Daggpunkt 17 °F
Luftfuktighet 70%
Rainfall 0.00 tum
Snow Depth Not available.
7:25 AM 5:27 PM
Första kvarteret, 36% visible
METAR ESGG 220050Z 05004KT CAVOK M09/M10 Q1028 R03/19//95
Lufttryck 30.36 tum
Sikt -9999.0 miles
Molnigt
Vindavkylning 26 °F
Daggpunkt 17 °F
Luftfuktighet 70%
Rainfall 0.00 tum
Snow Depth Not available.
7:25 AM 5:27 PM
Första kvarteret, 36% visible
METAR ESGG 220050Z 05004KT CAVOK M09/M10 Q1028 R03/19//95

Get Severe Weather Alerts

Thanks for signing up!

Be on the lookout for a verification email in your inbox.

You'll start receiving the daily forecast at 6 AM.

×

10-Day Weather Forecast

×

Almanac

Astronomi

Feb. 22, 2018 Rise Set
Actual Time
Civil Twilight
Nautical Twilight
Astronomical Twilight
Månen
Length Of Visible Light
Dagens längd
Tomorrow will be .
, % of the Moon is Illuminated

Today's Extremes

Country Highs Country Lows

Community

WunderPhotos

Category 6

Welcome to Category 6. This is the collective home for Weather Underground's featured writeups by Dr. Jeff Masters (right), Bob Henson (left), Chris Burt, and other regular contributors.

Nearby

Air Quality

  Air Quality AQ Index Pollutant
Not available.

Snödjup

Station Depth Elevation

Earthquake Activity

Stad Distance Mag. Time & Date
Minimum magnitude displayed is 2.5.

Coastal Water Temperatures

Plats Temperatur

Stations

Nearby Weather Stations

Station Location Temp Vindavkylning Daggpunkt Luftfuktighet Vind Precip. Elev Uppdaterad Type